Theta_e
331 332 334 335 340 344 342 341 342 345 345 344 346 345 344 341 341 341 340 338 336 336 340 339 340 340 337 333 332 327 324 322 318 321 326 337 336 333 329 329 329 330 327
328 330 331 333 335 339 339 343 340 342 343 341 344 341 340 339 340 337 337 336 335 334 338 338 338 335 342 341 332 338 330 334 324 331 333 327 331 332 331 330 328 326 327
322 324 329 329 331 337 338 341 342 337 336 336 338 338 339 339 339 339 337 336 335 335 336 337 338 339 341 333 333 330 328 328 331 325 323 325 325 328 327 330 331 335 329
319 320 324 328 328 328 332 335 339 339 337 336 337 340 342 341 338 338 337 336 335 334 335 337 336 336 337 338 336 333 334 332 331 326 322 321 323 332 327 325 326 330 327
318 318 321 328 327 326 326 328 331 336 338 337 335 339 341 340 337 336 336 335 335 334 335 336 338 334 329 334 333 334 336 332 326 326 322 321 322 323 325 328 325 326 331
317 317 319 324 325 323 324 324 327 330 331 336 336 336 336 333 318 313 324 336 336 334 335 336 338 328 327 319 320 320 329 336 332 327 326 326 333 330 329 326 325 322 321
316 317 317 320 323 322 321 321 323 326 328 328 331 335 334 336 315 312 314 330 333 339 340 339 336 334 327 331 318 316 315 317 322 337 335 335 337 337 338 332 332 327 324
313 315 317 316 319 322 320 321 323 326 326 327 327 327 330 333 314 308 309 330 338 337 338 339 337 335 333 329 328 324 322 323 323 329 335 338 342 340 339 333 332 330 329
312 313 316 316 316 320 321 323 322 323 324 324 324 326 330 332 312 306 312 326 327 332 336 339 336 335 322 309 328 326 324 322 318 315 317 312 312 313 325 328 323 321 320
311 313 315 317 317 317 322 325 323 324 323 320 321 325 320 328 315 305 312 330 329 328 334 335 317 325 313 308 323 329 325 322 323 316 317 313 315 316 309 329 328 322 320
312 313 314 315 318 319 324 325 324 324 322 322 322 326 326 325 327 302 301 317 332 331 331 331 332 310 306 304 307 326 324 326 320 322 321 322 323 323 318 319 325 323 320
310 312 313 314 314 316 324 325 322 322 320 321 323 321 320 328 309 309 302 300 304 313 326 330 331 309 305 303 306 309 308 310 325 324 321 320 322 321 322 324 321 323 325
310 311 311 311 313 315 320 321 323 321 316 315 313 313 315 319 322 307 302 300 303 310 322 316 305 304 302 303 300 301 300 317 321 321 319 320 321 324 327 326 326 326 325
309 310 311 311 309 311 314 320 321 318 314 313 312 312 314 316 319 313 311 311 308 311 310 313 314 312 309 312 308 305 313 316 321 321 320 320 323 323 323 325 321 316 313
310 311 311 310 311 311 314 314 321 323 312 313 314 315 314 314 312 297 296 302 307 306 308 315 316 321 318 317 316 314 317 317 316 318 318 318 317 316 313 314 313 312 311
311 310 311 311 311 313 314 311 301 300 297 295 293 297 312 300 295 294 294 294 294 295 309 313 311 315 314 316 316 315 316 314 318 318 318 317 315 317 313 312 312 309 308
311 312 312 309 310 312 313 308 310 300 295 293 293 294 293 292 295 295 295 295 296 297 309 310 309 309 309 310 310 309 307 309 308 308 307 306 305 305 303 305 305 306 305
311 303 310 310 312 311 312 310 306 306 309 311 296 298 294 294 295 294 294 297 308 307 309 307 308 306 306 307 305 305 305 305 307 306 306 305 305 304 304 303 303 303 303
308 310 310 312 314 310 310 312 312 310 309 310 311 300 298 296 296 296 298 308 305 305 309 308 309 307 307 308 306 306 305 304 304 304 306 304 304 304 303 304 304 296 298
309 303 300 308 311 311 310 309 310 310 309 310 307 310 310 305 307 308 307 307 305 304 305 308 309 308 309 309 309 309 307 307 308 308 308 309 309 308 307 306 306 305 303
309 307 297 307 306 308 308 308 306 308 309 307 307 302 288 306 304 305 305 304 305 305 305 306 310 307 307 308 307 308 309 309 310 309 308 308 308 306 306 306 306 305 305
303 302 304 307 306 307 308 306 306 306 306 306 306 302 290 302 304 304 305 305 304 304 305 306 308 307 307 307 307 308 308 307 307 307 306 305 306 305 304 304 303 303 302
300 300 302 305 307 301 308 307 305 304 305 304 303 301 299 299 299 299 301 304 304 303 304 304 305 305 308 306 306 307 305 305 305 305 305 303 301 300 300 299 300 300 300
303 301 300 305 307 306 306 304 303 297 299 298 296 296 296 297 298 299 300 302 302 303 303 303 304 305 305 304 304 305 304 304 302 298 298 298 298 296 300 300 300 300 300
302 301 304 305 306 302 302 300 298 296 296 295 295 296 296 297 298 299 300 301 302 302 303 304 304 303 302 301 302 302 290 286 297 291 297 297 297 298 300 301 301 301 301
300 299 299 299 298 297 296 295 295 295 294 294 295 296 297 298 300 301 302 303 303 303 303 303 302 302 300 299 296 288 286 286 293 287 302 303 301 300 299 297 296 297 297
Wind_Speed
12 12 12 12 11 11 4 5 6 3 6 9 10 12 12 13 11 11 12 13 13 12 9 9 11 10 7 6 7 7 7 7 8 3 3 7 5 4 4 3 5 6 7
10 10 12 12 12 10 8 6 2 5 5 7 10 10 11 12 10 12 12 12 14 13 10 10 10 9 11 7 7 7 7 5 7 3 3 4 6 6 6 5 5 5 2
11 12 8 11 11 10 10 6 7 3 5 5 7 9 12 14 13 12 13 12 13 11 9 9 11 10 8 9 9 8 8 5 5 5 5 5 6 6 6 6 6 6 5
10 11 10 7 10 11 10 11 6 3 6 5 9 12 13 11 10 11 11 9 12 12 10 10 8 10 10 10 9 8 7 6 6 5 6 6 5 6 6 6 7 7 4
11 11 11 6 5 8 10 10 10 8 4 5 6 10 10 9 9 10 9 9 11 12 12 11 10 11 11 13 10 11 9 8 8 8 7 7 7 6 7 7 4 3 3
12 12 10 12 3 7 7 8 8 8 9 6 7 8 9 5 8 3 8 9 10 12 13 13 12 9 12 10 12 9 11 9 10 8 9 8 8 7 5 4 5 4 4
13 12 12 12 7 7 7 8 8 8 7 8 9 6 9 10 12 15 15 11 13 14 14 13 12 11 12 12 12 13 7 10 9 8 8 6 4 6 4 4 5 4 6
14 14 12 12 14 8 3 10 7 8 8 8 7 9 10 8 12 11 12 13 15 15 15 13 12 12 11 12 9 9 6 9 10 9 6 6 5 4 4 3 4 2 5
16 15 15 13 12 14 8 5 8 7 9 8 8 8 10 9 8 11 10 9 10 14 15 15 12 13 14 14 14 15 17 17 10 9 5 8 6 2 7 5 5 5 7
14 16 16 15 12 13 14 8 8 6 9 8 9 9 11 11 9 8 8 9 10 9 13 14 15 15 12 16 15 16 16 16 14 9 5 5 6 4 5 4 2 5 7
17 15 14 16 15 13 13 10 7 7 10 9 8 8 11 8 6 9 9 7 11 10 9 8 9 13 15 14 16 13 14 12 12 10 10 8 6 6 5 4 5 6 6
16 17 16 15 14 13 13 11 11 10 8 10 9 9 7 5 2 5 7 4 10 7 7 7 9 14 15 16 13 16 17 12 10 10 10 10 9 8 7 6 7 6 5
13 15 13 15 13 15 15 10 10 12 9 9 9 7 6 6 5 7 9 10 9 4 7 7 10 10 12 8 11 9 4 11 12 13 13 12 11 9 10 8 9 8 5
11 16 15 13 12 13 12 8 10 12 10 9 7 6 7 7 6 6 9 9 9 4 6 6 7 7 6 5 3 5 6 4 9 11 9 5 6 6 5 4 3 5 3
12 12 11 10 11 12 10 8 10 9 5 5 5 5 6 6 7 6 7 7 8 7 10 3 5 4 4 4 5 5 5 3 2 2 5 6 5 4 3 4 4 4 5
12 10 9 9 8 9 8 7 6 2 5 3 2 6 1 1 5 10 11 11 11 11 4 4 1 6 5 5 6 6 7 8 7 5 4 3 4 5 5 4 3 4 4
11 13 8 10 10 10 9 5 10 2 3 6 6 4 5 9 6 9 12 10 11 7 4 3 3 4 2 2 4 4 3 3 5 4 5 6 6 7 7 6 6 5 3
11 9 11 9 9 10 9 9 6 8 5 6 8 6 8 4 5 8 10 9 5 2 2 2 2 5 6 3 3 3 4 4 3 4 4 6 5 6 5 5 5 6 5
11 10 6 8 9 8 6 9 9 13 7 5 6 5 6 6 5 6 7 3 3 5 3 3 1 5 4 2 5 4 5 4 4 3 4 4 5 6 5 6 6 7 6
7 10 8 10 9 9 8 8 7 7 8 7 3 4 4 2 3 2 3 2 2 2 4 3 3 4 3 3 5 4 6 5 5 5 5 6 6 6 6 7 6 7 7
8 9 6 10 9 6 5 6 5 5 6 4 3 4 7 3 2 3 2 4 5 4 4 6 4 2 5 4 4 4 3 3 2 3 4 2 2 3 3 3 4 4 3
11 9 10 10 8 4 7 1 4 4 3 5 5 6 3 2 3 3 3 4 4 4 4 4 5 5 5 6 5 5 2 2 1 3 3 2 2 1 1 2 2 2 3
8 9 8 10 7 3 4 2 3 3 4 6 7 6 7 6 6 6 6 5 5 4 5 3 4 4 6 7 5 5 4 5 5 5 2 2 2 2 3 3 3 3 3
8 5 7 6 3 1 3 7 7 8 9 8 8 7 7 6 5 5 4 4 4 4 4 4 5 7 6 4 3 5 5 5 2 2 2 2 2 2 3 4 4 4 4
3 3 2 3 6 7 8 9 9 9 9 9 8 8 7 6 5 3 3 3 3 5 6 5 5 9 11 12 10 9 4 3 6 2 3 3 3 2 0 2 3 3 3
10 10 10 10 9 9 9 9 9 9 9 8 7 6 5 5 4 4 5 5 5 7 7 6 8 13 10 10 9 5 6 6 3 7 0 5 5 4 4 4 3 2 3
Wind_Direction
13 11 15 8 20 357 345 334 317 260 206 196 201 210 207 206 207 209 221 219 217 216 208 193 200 186 244 221 229 237 240 248 259 265 102 125 157 222 218 216 253 250 142
6 7 9 360 358 13 3 332 305 254 199 188 184 217 222 216 209 223 226 223 217 219 211 217 217 202 213 243 237 228 227 228 268 241 171 159 218 192 232 241 265 288 296
349 340 14 352 352 354 354 359 333 260 282 280 263 215 231 233 236 234 237 223 217 229 239 232 214 217 206 221 227 216 219 219 221 268 206 233 194 205 212 236 240 236 243
336 329 329 353 345 344 347 346 350 332 294 287 272 244 238 239 236 239 226 230 233 217 232 257 254 227 209 202 224 242 218 197 215 232 226 200 214 191 216 253 209 204 233
317 316 307 312 332 335 338 341 341 341 329 282 277 280 270 247 239 235 231 241 225 229 230 241 247 252 221 204 214 210 215 207 207 216 225 216 202 198 214 209 230 258 173
306 303 305 297 316 303 319 324 328 336 336 327 306 293 266 270 311 279 259 254 231 236 245 243 241 230 243 219 225 237 204 206 219 216 231 222 214 197 227 234 232 249 263
301 294 291 287 266 295 305 310 327 323 318 314 313 282 280 275 240 248 249 254 263 260 247 244 234 229 211 221 223 238 244 214 217 242 256 288 306 176 251 187 254 263 280
294 292 287 287 292 241 265 300 309 310 315 315 308 304 302 274 228 230 236 251 257 251 251 243 235 230 213 216 207 217 223 249 210 215 221 259 265 262 172 239 319 307 277
292 287 285 280 278 293 232 243 281 295 297 293 293 298 286 282 265 217 225 241 244 257 257 251 242 239 231 201 212 216 221 231 216 194 174 108 116 153 159 190 211 216 258
287 292 292 289 280 280 288 249 262 276 276 284 304 304 298 292 306 269 220 252 239 236 241 240 228 239 232 210 212 222 217 212 205 151 156 104 143 158 150 206 258 262 278
292 286 284 284 282 275 271 266 258 266 278 286 292 290 290 294 349 26 16 306 268 250 238 236 239 219 224 212 215 227 222 211 197 166 182 169 188 188 193 222 218 246 263
295 294 287 276 273 269 259 239 245 252 261 261 260 268 282 325 62 8 340 312 296 298 274 239 235 214 213 218 212 220 237 223 193 187 191 185 180 199 195 187 199 210 262
282 280 280 297 290 273 267 244 240 239 240 262 263 280 289 312 327 59 338 326 289 277 282 309 306 243 216 218 220 235 245 241 226 217 203 197 176 186 189 194 213 167 202
264 268 275 263 271 278 272 263 235 250 243 247 267 286 311 317 329 3 334 323 306 276 258 270 299 279 208 216 134 193 211 277 221 192 176 142 152 146 160 172 168 125 126
292 280 284 281 258 263 268 257 245 254 356 309 290 316 309 316 8 338 311 324 318 303 296 254 270 245 217 204 181 185 198 196 162 343 137 156 164 163 147 151 143 142 195
303 292 295 291 268 276 261 236 227 124 131 197 309 288 301 193 332 314 310 311 312 310 270 276 265 267 231 211 195 181 200 204 202 180 153 155 163 190 163 161 150 151 155
299 302 289 272 289 282 258 240 201 168 232 219 190 211 258 329 320 313 307 312 312 324 296 305 22 263 278 152 149 157 138 117 115 132 141 135 138 141 147 167 148 149 156
302 291 296 293 297 278 265 245 231 258 260 207 206 221 202 260 304 315 313 309 319 275 336 24 39 68 292 184 124 113 117 118 138 133 137 133 138 145 151 162 165 172 173
314 309 306 293 285 282 286 281 257 230 217 238 185 209 199 223 252 283 309 358 15 2 311 94 200 111 251 153 101 116 114 126 121 119 138 138 138 148 167 179 181 186 187
301 282 269 285 279 283 294 303 268 245 227 231 222 208 178 193 246 20 32 14 11 36 342 343 53 45 4 56 122 137 123 148 146 162 174 168 174 184 182 195 194 200 209
311 301 281 281 281 273 293 320 294 238 219 183 160 68 47 100 69 23 65 47 33 26 21 9 13 57 95 30 24 23 73 127 122 102 108 144 149 172 182 201 199 202 189
294 286 289 274 278 274 266 25 305 303 151 162 144 113 104 8 108 100 68 49 52 26 18 23 23 0 40 66 18 0 30 74 79 90 130 155 154 168 169 183 170 151 181
271 257 257 261 258 269 256 99 319 43 93 88 86 73 69 55 50 41 28 43 32 38 37 25 25 24 39 40 30 357 1 19 17 14 21 117 147 175 179 184 185 168 180
294 219 237 243 263 270 41 78 86 74 76 78 79 78 75 67 55 36 30 26 57 42 44 43 50 51 48 51 27 29 21 1 59 65 69 110 131 137 192 190 183 190 197
75 130 183 343 72 83 78 72 74 77 79 80 78 72 72 65 49 40 31 23 37 66 54 55 56 62 43 40 38 43 21 346 15 68 131 111 96 109 222 192 186 190 173
45 54 62 63 65 69 73 75 79 81 78 76 74 69 75 65 42 82 72 49 91 94 85 62 67 64 53 57 44 358 334 12 285 264 51 122 123 137 165 171 163 146 187